TimeEDT,TemperatureF,Dew PointF,Humidity,Sea Level PressureIn,VisibilityMPH,Wind Direction,Wind SpeedMPH,Gust SpeedMPH,PrecipitationIn,Events,Conditions,WindDirDegrees,DateUTC
12:53 AM,75.9,68.0,76,30.08,10.0,SSE,5.8,-,N/A,,Overcast,160,2013-05-19 04:53:00
1:53 AM,75.0,68.0,79,30.06,10.0,SSE,3.5,-,N/A,,Clear,150,2013-05-19 05:53:00
2:53 AM,73.9,68.0,82,30.05,10.0,Calm,Calm,-,N/A,,Clear,0,2013-05-19 06:53:00
3:53 AM,73.0,68.0,84,30.04,10.0,South,3.5,-,N/A,,Clear,170,2013-05-19 07:53:00
4:53 AM,73.0,69.1,87,30.04,10.0,SSE,3.5,-,N/A,,Clear,160,2013-05-19 08:53:00
5:22 AM,73.4,69.8,88,30.04,10.0,SSE,4.6,-,N/A,,Mostly Cloudy,150,2013-05-19 09:22:00
5:46 AM,73.4,68.0,83,30.04,10.0,Calm,Calm,-,N/A,,Partly Cloudy,0,2013-05-19 09:46:00
5:53 AM,72.0,68.0,87,30.05,10.0,Calm,Calm,-,N/A,,Partly Cloudy,0,2013-05-19 09:53:00
6:42 AM,73.4,69.8,88,30.06,10.0,Calm,Calm,-,N/A,,Mostly Cloudy,0,2013-05-19 10:42:00
6:53 AM,72.0,68.0,87,30.07,10.0,Calm,Calm,-,N/A,,Scattered Clouds,0,2013-05-19 10:53:00
7:00 AM,71.6,68.0,88,30.06,10.0,SE,3.5,-,N/A,,Mostly Cloudy,130,2013-05-19 11:00:00
7:14 AM,73.4,69.8,88,30.06,10.0,SE,3.5,-,N/A,,Scattered Clouds,130,2013-05-19 11:14:00
8:53 AM,79.0,69.1,72,30.09,10.0,SSE,6.9,-,N/A,,Clear,150,2013-05-19 12:53:00
9:53 AM,82.0,66.9,60,30.10,10.0,SSE,8.1,-,N/A,,Clear,150,2013-05-19 13:53:00
10:53 AM,84.9,66.0,53,30.10,10.0,Calm,Calm,-,N/A,,Mostly Cloudy,0,2013-05-19 14:53:00
11:53 AM,86.0,66.9,53,30.09,10.0,ESE,5.8,-,N/A,,Scattered Clouds,110,2013-05-19 15:53:00
12:53 PM,87.1,66.0,49,30.07,10.0,Variable,3.5,-,N/A,,Mostly Cloudy,0,2013-05-19 16:53:00
1:53 PM,87.1,66.9,51,30.04,10.0,Variable,4.6,-,N/A,,Overcast,0,2013-05-19 17:53:00
3:53 PM,86.0,69.1,57,30.00,10.0,West,4.6,-,0.00,,Mostly Cloudy,280,2013-05-19 19:53:00
4:53 PM,86.0,68.0,55,30.00,10.0,ENE,10.4,17.3,N/A,Thunderstorm,Thunderstorm,60,2013-05-19 20:53:00
5:11 PM,78.8,66.2,65,29.98,2.5,ESE,28.8,49.5,0.00,Rain-Thunderstorm,Light Thunderstorms and Rain,110,2013-05-19 21:11:00
5:18 PM,73.4,66.2,78,29.98,0.8,SE,23.0,49.5,0.04,Rain-Thunderstorm,Heavy Thunderstorms and Rain,140,2013-05-19 21:18:00
5:38 PM,73.4,66.2,78,30.02,0.5,Variable,3.5,-,0.84,Rain-Thunderstorm,Heavy Thunderstorms and Rain,0,2013-05-19 21:38:00
5:41 PM,71.6,66.2,83,30.02,1.0,North,13.8,17.3,0.85,Rain-Thunderstorm,Thunderstorms and Rain,360,2013-05-19 21:41:00
5:53 PM,71.1,68.0,90,30.03,1.2,North,4.6,-,1.00,Rain-Thunderstorm,Rain,360,2013-05-19 21:53:00
5:57 PM,71.6,68.0,88,30.02,2.0,NNE,5.8,-,0.03,Rain,Rain,30,2013-05-19 21:57:00
6:08 PM,71.6,69.8,94,30.01,8.0,North,6.9,-,0.04,Rain,Light Rain,350,2013-05-19 22:08:00
6:53 PM,73.0,70.0,90,30.02,10.0,ESE,4.6,-,0.04,,Mostly Cloudy,120,2013-05-19 22:53:00
7:53 PM,73.9,71.1,91,30.03,10.0,Calm,Calm,-,N/A,,Clear,0,2013-05-19 23:53:00
8:53 PM,75.0,71.1,87,30.05,10.0,Calm,Calm,-,N/A,,Mostly Cloudy,0,2013-05-20 00:53:00
9:53 PM,73.9,71.1,91,30.05,10.0,Calm,Calm,-,N/A,,Partly Cloudy,0,2013-05-20 01:53:00
10:53 PM,73.0,72.0,96,30.08,10.0,Calm,Calm,-,N/A,,Clear,0,2013-05-20 02:53:00
11:53 PM,73.0,71.1,93,30.07,10.0,Calm,Calm,-,N/A,,Clear,0,2013-05-20 03:53:00